Time,TemperatureF,DewpointF,PressureIn,WindDirection,WindDirectionDegrees,WindSpeedMPH,WindSpeedGustMPH,Humidity,HourlyPrecipIn,Conditions,Clouds,dailyrainin,SoftwareType,DateUTC
2013-09-03 00:04:00,67.4,48.1,29.80,NNE,22,2.0,5.0,50,0.00,,SKC,0.00,VWS V14.00,2013-09-03 06:04:00,
2013-09-03 00:09:00,67.0,48.3,29.80,ENE,63,3.0,5.0,51,0.00,,SKC,0.00,VWS V14.00,2013-09-03 06:09:00,
2013-09-03 00:14:00,66.3,48.2,29.80,ENE,63,1.0,5.0,52,0.00,,SKC,0.00,VWS V14.00,2013-09-03 06:14:00,
2013-09-03 00:20:00,65.8,48.2,29.79,NE,46,0.0,5.0,53,0.00,,SKC,0.00,VWS V14.00,2013-09-03 06:20:00,
2013-09-03 00:25:00,65.8,48.7,29.80,ENE,69,0.0,5.0,54,0.00,,SKC,0.00,VWS V14.00,2013-09-03 06:25:00,
2013-09-03 00:30:00,65.9,49.3,29.80,ENE,64,0.0,5.0,55,0.00,,SKC,0.00,VWS V14.00,2013-09-03 06:30:00,
2013-09-03 00:35:00,65.9,48.3,29.80,NE,55,2.0,3.0,53,0.00,,SKC,0.00,VWS V14.00,2013-09-03 06:35:00,
2013-09-03 00:40:00,66.4,48.8,29.80,NE,49,1.0,5.0,53,0.00,,SKC,0.00,VWS V14.00,2013-09-03 06:40:00,
2013-09-03 00:46:00,66.6,48.4,29.80,ENE,69,0.0,6.0,52,0.00,,SKC,0.00,VWS V14.00,2013-09-03 06:46:00,
2013-09-03 00:51:00,66.4,48.8,29.80,ENE,65,0.0,6.0,53,0.00,,SKC,0.00,VWS V14.00,2013-09-03 06:51:00,
2013-09-03 00:56:00,66.2,48.6,29.81,ENE,65,0.0,6.0,53,0.00,,SKC,0.00,VWS V14.00,2013-09-03 06:56:00,
2013-09-03 01:01:00,66.0,48.9,29.81,NE,41,0.0,6.0,54,0.00,,SKC,0.00,VWS V14.00,2013-09-03 07:01:00,
2013-09-03 01:06:00,65.7,49.1,29.81,East,82,0.0,1.0,55,0.00,,SKC,0.00,VWS V14.00,2013-09-03 07:06:00,
2013-09-03 01:12:00,65.1,49.0,29.81,East,82,1.0,1.0,56,0.00,,SKC,0.00,VWS V14.00,2013-09-03 07:12:00,
2013-09-03 01:17:00,64.1,48.6,29.81,East,82,0.0,2.0,57,0.00,,SKC,0.00,VWS V14.00,2013-09-03 07:17:00,
2013-09-03 01:22:00,63.2,48.2,29.81,East,82,3.0,3.0,58,0.00,,SKC,0.00,VWS V14.00,2013-09-03 07:22:00,
2013-09-03 01:27:00,62.7,48.6,29.82,East,80,0.0,3.0,60,0.00,,SKC,0.00,VWS V14.00,2013-09-03 07:27:00,
2013-09-03 01:32:00,62.2,48.6,29.82,East,80,0.0,0.0,61,0.00,,SKC,0.00,VWS V14.00,2013-09-03 07:32:00,
2013-09-03 01:38:00,61.8,48.7,29.82,East,80,0.0,1.0,62,0.00,,SKC,0.00,VWS V14.00,2013-09-03 07:38:00,
2013-09-03 01:43:00,61.1,48.8,29.81,East,79,0.0,4.0,64,0.00,,SKC,0.00,VWS V14.00,2013-09-03 07:43:00,
2013-09-03 01:48:00,60.6,48.8,29.81,East,79,0.0,4.0,65,0.00,,SKC,0.00,VWS V14.00,2013-09-03 07:48:00,
2013-09-03 01:53:00,60.2,48.8,29.82,East,79,1.0,4.0,66,0.00,,SKC,0.00,VWS V14.00,2013-09-03 07:53:00,
2013-09-03 01:58:00,59.9,48.9,29.82,East,79,0.0,4.0,67,0.00,,SKC,0.00,VWS V14.00,2013-09-03 07:58:00,
2013-09-03 02:03:00,59.5,49.3,29.82,East,79,0.0,0.0,69,0.00,,SKC,0.00,VWS V14.00,2013-09-03 08:03:00,
2013-09-03 02:09:00,59.1,49.3,29.81,East,79,0.0,1.0,70,0.00,,SKC,0.00,VWS V14.00,2013-09-03 08:09:00,
2013-09-03 02:14:00,58.8,49.0,29.81,East,79,0.0,1.0,70,0.00,,SKC,0.00,VWS V14.00,2013-09-03 08:14:00,
2013-09-03 02:19:00,58.5,48.8,29.81,East,79,0.0,1.0,70,0.00,,SKC,0.00,VWS V14.00,2013-09-03 08:19:00,
2013-09-03 02:24:00,58.4,48.7,29.82,East,79,0.0,1.0,70,0.00,,SKC,0.00,VWS V14.00,2013-09-03 08:24:00,
2013-09-03 02:30:00,58.3,48.6,29.82,East,79,0.0,2.0,70,0.00,,SKC,0.00,VWS V14.00,2013-09-03 08:30:00,
2013-09-03 02:35:00,58.2,48.5,29.82,East,79,0.0,0.0,70,0.00,,SKC,0.00,VWS V14.00,2013-09-03 08:35:00,
2013-09-03 02:40:00,58.1,48.8,29.82,East,79,0.0,1.0,71,0.00,,SKC,0.00,VWS V14.00,2013-09-03 08:40:00,
2013-09-03 02:45:00,58.0,48.7,29.82,East,79,0.0,1.0,71,0.00,,SKC,0.00,VWS V14.00,2013-09-03 08:45:00,
2013-09-03 02:50:00,57.7,49.1,29.82,East,79,0.0,2.0,73,0.00,,SKC,0.00,VWS V14.00,2013-09-03 08:50:00,
2013-09-03 02:56:00,57.2,49.0,29.82,East,79,0.0,3.0,74,0.00,,SKC,0.00,VWS V14.00,2013-09-03 08:56:00,
2013-09-03 03:01:00,56.9,48.7,29.83,East,79,1.0,3.0,74,0.00,,SKC,0.00,VWS V14.00,2013-09-03 09:01:00,
2013-09-03 03:06:00,56.8,49.0,29.83,East,79,0.0,3.0,75,0.00,,SKC,0.00,VWS V14.00,2013-09-03 09:06:00,
2013-09-03 03:11:00,56.6,48.8,29.83,East,79,0.0,3.0,75,0.00,,SKC,0.00,VWS V14.00,2013-09-03 09:11:00,
2013-09-03 03:16:00,56.6,48.8,29.83,East,79,0.0,3.0,75,0.00,,SKC,0.00,VWS V14.00,2013-09-03 09:16:00,
2013-09-03 03:22:00,56.5,48.3,29.83,East,79,0.0,3.0,74,0.00,,SKC,0.00,VWS V14.00,2013-09-03 09:22:00,
2013-09-03 03:27:00,56.6,48.4,29.83,East,79,0.0,3.0,74,0.00,,SKC,0.00,VWS V14.00,2013-09-03 09:27:00,
2013-09-03 03:32:00,56.7,48.5,29.83,East,79,0.0,3.0,74,0.00,,SKC,0.00,VWS V14.00,2013-09-03 09:32:00,
2013-09-03 03:37:00,56.7,48.5,29.83,East,79,0.0,1.0,74,0.00,,SKC,0.00,VWS V14.00,2013-09-03 09:37:00,
2013-09-03 03:42:00,56.6,48.4,29.83,East,79,1.0,1.0,74,0.00,,SKC,0.00,VWS V14.00,2013-09-03 09:42:00,
2013-09-03 03:48:00,56.4,48.6,29.83,East,79,0.0,1.0,75,0.00,,SKC,0.00,VWS V14.00,2013-09-03 09:48:00,
2013-09-03 03:53:00,56.1,48.7,29.84,East,79,0.0,1.0,76,0.00,,SKC,0.00,VWS V14.00,2013-09-03 09:53:00,
2013-09-03 03:58:00,55.9,48.5,29.84,East,79,0.0,1.0,76,0.00,,SKC,0.00,VWS V14.00,2013-09-03 09:58:00,
2013-09-03 04:03:00,55.8,48.7,29.84,East,79,2.0,3.0,77,0.00,,SKC,0.00,VWS V14.00,2013-09-03 10:03:00,
2013-09-03 04:08:00,55.5,48.8,29.84,North,9,0.0,3.0,78,0.00,,SKC,0.00,VWS V14.00,2013-09-03 10:08:00,
2013-09-03 04:14:00,55.2,48.8,29.84,North,9,2.0,4.0,79,0.00,,SKC,0.00,VWS V14.00,2013-09-03 10:14:00,
2013-09-03 04:19:00,55.1,48.4,29.84,North,9,0.0,4.0,78,0.00,,SKC,0.00,VWS V14.00,2013-09-03 10:19:00,
2013-09-03 04:24:00,55.1,48.4,29.84,North,9,0.0,4.0,78,0.00,,SKC,0.00,VWS V14.00,2013-09-03 10:24:00,
2013-09-03 04:29:00,55.4,48.3,29.84,North,9,0.0,4.0,77,0.00,,SKC,0.00,VWS V14.00,2013-09-03 10:29:00,
2013-09-03 04:35:00,55.4,48.3,29.84,North,9,0.0,1.0,77,0.00,,SKC,0.00,VWS V14.00,2013-09-03 10:35:00,
2013-09-03 04:40:00,55.1,48.4,29.84,North,9,0.0,3.0,78,0.00,,SKC,0.00,VWS V14.00,2013-09-03 10:40:00,
2013-09-03 04:45:00,54.7,48.7,29.84,North,9,0.0,3.0,80,0.00,,SKC,0.00,VWS V14.00,2013-09-03 10:45:00,
2013-09-03 04:50:00,54.6,48.6,29.84,North,9,0.0,3.0,80,0.00,,SKC,0.00,VWS V14.00,2013-09-03 10:50:00,
2013-09-03 04:55:00,54.4,48.4,29.84,North,9,0.0,3.0,80,0.00,,SKC,0.00,VWS V14.00,2013-09-03 10:55:00,
2013-09-03 05:01:00,54.3,48.3,29.84,North,9,0.0,3.0,80,0.00,,SKC,0.00,VWS V14.00,2013-09-03 11:01:00,
2013-09-03 05:06:00,54.1,48.1,29.84,North,9,0.0,0.0,80,0.00,,SKC,0.00,VWS V14.00,2013-09-03 11:06:00,
2013-09-03 05:11:00,53.8,48.4,29.84,North,9,0.0,2.0,82,0.00,,SKC,0.00,VWS V14.00,2013-09-03 11:11:00,
2013-09-03 05:16:00,53.6,48.2,29.84,North,9,0.0,2.0,82,0.00,,SKC,0.00,VWS V14.00,2013-09-03 11:16:00,
2013-09-03 05:21:00,53.6,47.9,29.84,North,9,0.0,2.0,81,0.00,,SKC,0.00,VWS V14.00,2013-09-03 11:21:00,
2013-09-03 05:27:00,53.7,48.0,29.84,North,9,0.0,2.0,81,0.00,,SKC,0.00,VWS V14.00,2013-09-03 11:27:00,
2013-09-03 05:32:00,53.6,48.2,29.84,North,9,0.0,3.0,82,0.00,,SKC,0.00,VWS V14.00,2013-09-03 11:32:00,
2013-09-03 05:37:00,53.5,48.5,29.84,North,9,0.0,1.0,83,0.00,,SKC,0.00,VWS V14.00,2013-09-03 11:37:00,
2013-09-03 05:42:00,53.3,48.3,29.85,North,9,0.0,1.0,83,0.00,,SKC,0.00,VWS V14.00,2013-09-03 11:42:00,
2013-09-03 05:47:00,53.3,48.0,29.85,North,9,0.0,1.0,82,0.00,,SKC,0.00,VWS V14.00,2013-09-03 11:47:00,
2013-09-03 05:53:00,53.2,48.2,29.85,North,9,0.0,1.0,83,0.00,,SKC,0.00,VWS V14.00,2013-09-03 11:53:00,
2013-09-03 05:58:00,53.1,48.1,29.85,North,9,0.0,1.0,83,0.00,,SKC,0.00,VWS V14.00,2013-09-03 11:58:00,
2013-09-03 06:03:00,53.0,48.0,29.85,North,9,0.0,0.0,83,0.00,,SKC,0.00,VWS V14.00,2013-09-03 12:03:00,
2013-09-03 06:08:00,52.9,47.9,29.85,North,9,0.0,0.0,83,0.00,,SKC,0.00,VWS V14.00,2013-09-03 12:08:00,
2013-09-03 06:14:00,52.8,47.8,29.85,North,9,0.0,0.0,83,0.00,,SKC,0.00,VWS V14.00,2013-09-03 12:14:00,
2013-09-03 06:19:00,53.0,48.3,29.85,North,9,0.0,4.0,84,0.00,,SKC,0.00,VWS V14.00,2013-09-03 12:19:00,
2013-09-03 06:24:00,53.1,48.1,29.85,North,9,0.0,4.0,83,0.00,,SKC,0.00,VWS V14.00,2013-09-03 12:24:00,
2013-09-03 06:29:00,53.0,48.0,29.85,North,9,0.0,4.0,83,0.00,,SKC,0.00,VWS V14.00,2013-09-03 12:29:00,
2013-09-03 06:35:00,52.7,48.0,29.85,North,9,0.0,0.0,84,0.00,,SKC,0.00,VWS V14.00,2013-09-03 12:35:00,
2013-09-03 06:40:00,52.5,47.8,29.86,North,9,0.0,0.0,84,0.00,,SKC,0.00,VWS V14.00,2013-09-03 12:40:00,
2013-09-03 06:45:00,52.3,47.6,29.86,North,9,0.0,0.0,84,0.00,,SKC,0.00,VWS V14.00,2013-09-03 12:45:00,
2013-09-03 06:50:00,52.3,47.6,29.86,North,9,0.0,0.0,84,0.00,,SKC,0.00,VWS V14.00,2013-09-03 12:50:00,
2013-09-03 06:56:00,52.2,47.5,29.87,North,9,0.0,0.0,84,0.00,,SKC,0.00,VWS V14.00,2013-09-03 12:56:00,
2013-09-03 07:01:00,52.0,47.6,29.87,North,9,0.0,0.0,85,0.00,,SKC,0.00,VWS V14.00,2013-09-03 13:01:00,
2013-09-03 07:06:00,52.0,47.6,29.87,North,9,0.0,2.0,85,0.00,,SKC,0.00,VWS V14.00,2013-09-03 13:06:00,
2013-09-03 07:11:00,52.1,47.7,29.88,North,9,0.0,2.0,85,0.00,,SKC,0.00,VWS V14.00,2013-09-03 13:11:00,
2013-09-03 07:17:00,52.1,47.7,29.87,North,9,0.0,2.0,85,0.00,,SKC,0.00,VWS V14.00,2013-09-03 13:17:00,
2013-09-03 07:22:00,51.9,47.8,29.88,North,9,0.0,2.0,86,0.00,,SKC,0.00,VWS V14.00,2013-09-03 13:22:00,
2013-09-03 07:27:00,51.9,47.8,29.88,North,9,0.0,2.0,86,0.00,,SKC,0.00,VWS V14.00,2013-09-03 13:27:00,
2013-09-03 07:32:00,51.9,47.5,29.88,North,9,0.0,0.0,85,0.00,,SKC,0.00,VWS V14.00,2013-09-03 13:32:00,
2013-09-03 07:38:00,52.0,48.0,29.88,North,9,0.0,0.0,86,0.00,,SKC,0.00,VWS V14.00,2013-09-03 13:38:00,
2013-09-03 07:43:00,52.0,48.0,29.89,North,9,0.0,0.0,86,0.00,,SKC,0.00,VWS V14.00,2013-09-03 13:43:00,
2013-09-03 07:48:00,52.1,48.0,29.88,North,9,0.0,1.0,86,0.00,,SKC,0.00,VWS V14.00,2013-09-03 13:48:00,
2013-09-03 07:53:00,52.3,48.2,29.88,North,9,2.0,3.0,86,0.00,,SKC,0.00,VWS V14.00,2013-09-03 13:53:00,
2013-09-03 07:59:00,52.5,48.1,29.88,North,9,0.0,3.0,85,0.00,,SKC,0.00,VWS V14.00,2013-09-03 13:59:00,
2013-09-03 08:04:00,52.4,48.0,29.88,North,9,0.0,1.0,85,0.00,,SKC,0.00,VWS V14.00,2013-09-03 14:04:00,
2013-09-03 08:09:00,52.4,48.3,29.89,North,9,2.0,3.0,86,0.00,,SKC,0.00,VWS V14.00,2013-09-03 14:09:00,
2013-09-03 08:14:00,53.0,48.6,29.89,North,9,0.0,3.0,85,0.00,,SKC,0.00,VWS V14.00,2013-09-03 14:14:00,
2013-09-03 08:20:00,53.5,48.8,29.89,North,9,0.0,3.0,84,0.00,,SKC,0.00,VWS V14.00,2013-09-03 14:20:00,
2013-09-03 08:25:00,54.0,49.0,29.88,North,9,0.0,3.0,83,0.00,,SKC,0.00,VWS V14.00,2013-09-03 14:25:00,
2013-09-03 08:30:00,54.5,49.1,29.88,North,9,0.0,3.0,82,0.00,,SKC,0.00,VWS V14.00,2013-09-03 14:30:00,
2013-09-03 08:35:00,54.8,49.1,29.88,North,9,0.0,0.0,81,0.00,,SKC,0.00,VWS V14.00,2013-09-03 14:35:00,
2013-09-03 08:41:00,55.5,49.4,29.88,North,9,0.0,0.0,80,0.00,,SKC,0.00,VWS V14.00,2013-09-03 14:41:00,
2013-09-03 08:46:00,56.2,49.8,29.88,North,9,0.0,0.0,79,0.00,,SKC,0.00,VWS V14.00,2013-09-03 14:46:00,
2013-09-03 08:51:00,57.4,49.9,29.88,North,9,0.0,0.0,76,0.00,,SKC,0.00,VWS V14.00,2013-09-03 14:51:00,
2013-09-03 08:56:00,58.3,50.1,29.89,North,9,0.0,0.0,74,0.00,,SKC,0.00,VWS V14.00,2013-09-03 14:56:00,
2013-09-03 09:02:00,59.1,50.1,29.88,North,9,0.0,0.0,72,0.00,,SKC,0.00,VWS V14.00,2013-09-03 15:02:00,
2013-09-03 09:07:00,59.8,50.0,29.88,North,9,0.0,0.0,70,0.00,,SKC,0.00,VWS V14.00,2013-09-03 15:07:00,
2013-09-03 09:12:00,61.0,50.4,29.88,North,9,0.0,0.0,68,0.00,,SKC,0.00,VWS V14.00,2013-09-03 15:12:00,
2013-09-03 09:17:00,62.5,51.0,29.88,North,9,0.0,0.0,66,0.00,,SKC,0.00,VWS V14.00,2013-09-03 15:17:00,
2013-09-03 09:23:00,64.0,51.2,29.88,North,9,0.0,0.0,63,0.00,,SKC,0.00,VWS V14.00,2013-09-03 15:23:00,
2013-09-03 09:28:00,65.6,51.4,29.87,North,9,0.0,0.0,60,0.00,,SKC,0.00,VWS V14.00,2013-09-03 15:28:00,
2013-09-03 09:33:00,66.9,51.2,29.87,North,9,0.0,0.0,57,0.00,,SKC,0.00,VWS V14.00,2013-09-03 15:33:00,
2013-09-03 09:38:00,67.9,51.2,29.87,North,9,0.0,0.0,55,0.00,,SKC,0.00,VWS V14.00,2013-09-03 15:38:00,
2013-09-03 09:44:00,69.0,51.2,29.87,North,9,0.0,1.0,53,0.00,,SKC,0.00,VWS V14.00,2013-09-03 15:44:00,
2013-09-03 09:49:00,70.1,51.7,29.86,North,9,0.0,1.0,52,0.00,,SKC,0.00,VWS V14.00,2013-09-03 15:49:00,
2013-09-03 09:54:00,71.1,52.1,29.86,North,9,0.0,1.0,51,0.00,,SKC,0.00,VWS V14.00,2013-09-03 15:54:00,
2013-09-03 09:59:00,71.9,52.3,29.86,North,9,0.0,1.0,50,0.00,,SKC,0.00,VWS V14.00,2013-09-03 15:59:00,
2013-09-03 10:05:00,72.6,52.4,29.86,East,81,0.0,1.0,49,0.00,,SKC,0.00,VWS V14.00,2013-09-03 16:05:00,
2013-09-03 10:10:00,73.3,53.0,29.86,East,81,0.0,1.0,49,0.00,,SKC,0.00,VWS V14.00,2013-09-03 16:10:00,
2013-09-03 10:15:00,74.1,53.2,29.85,East,81,0.0,1.0,48,0.00,,SKC,0.00,VWS V14.00,2013-09-03 16:15:00,
2013-09-03 10:20:00,74.8,52.7,29.85,East,81,0.0,1.0,46,0.00,,SKC,0.00,VWS V14.00,2013-09-03 16:20:00,
2013-09-03 10:25:00,75.6,52.8,29.85,East,81,0.0,1.0,45,0.00,,SKC,0.00,VWS V14.00,2013-09-03 16:25:00,
2013-09-03 10:31:00,76.3,52.8,29.85,East,81,0.0,1.0,44,0.00,,SKC,0.00,VWS V14.00,2013-09-03 16:31:00,
2013-09-03 10:36:00,77.2,51.7,29.85,East,81,0.0,1.0,41,0.00,,SKC,0.00,VWS V14.00,2013-09-03 16:36:00,
2013-09-03 10:41:00,77.8,52.2,29.85,East,93,1.0,4.0,41,0.00,,SKC,0.00,VWS V14.00,2013-09-03 16:41:00,
2013-09-03 10:46:00,78.0,52.4,29.85,ESE,110,0.0,4.0,41,0.00,,SKC,0.00,VWS V14.00,2013-09-03 16:46:00,
2013-09-03 10:52:00,78.4,53.4,29.84,SE,142,1.0,4.0,42,0.00,,SKC,0.00,VWS V14.00,2013-09-03 16:52:00,
2013-09-03 10:57:00,78.8,53.8,29.84,SE,142,0.0,4.0,42,0.00,,SKC,0.00,VWS V14.00,2013-09-03 16:57:00,
2013-09-03 11:02:00,79.3,53.6,29.84,SE,142,0.0,4.0,41,0.00,,SKC,0.00,VWS V14.00,2013-09-03 17:02:00,
2013-09-03 11:07:00,79.4,55.0,29.84,SW,229,0.0,4.0,43,0.00,,SKC,0.00,VWS V14.00,2013-09-03 17:07:00,
2013-09-03 11:12:00,79.7,53.9,29.84,SSW,212,0.0,4.0,41,0.00,,SKC,0.00,VWS V14.00,2013-09-03 17:12:00,
2013-09-03 11:18:00,80.1,53.6,29.84,WSW,242,2.0,4.0,40,0.00,,SKC,0.00,VWS V14.00,2013-09-03 17:18:00,
2013-09-03 11:23:00,80.4,53.9,29.83,SSW,205,2.0,4.0,40,0.00,,SKC,0.00,VWS V14.00,2013-09-03 17:23:00,
2013-09-03 11:28:00,80.6,54.8,29.83,SSW,205,0.0,4.0,41,0.00,,SKC,0.00,VWS V14.00,2013-09-03 17:28:00,
2013-09-03 11:33:00,80.9,52.9,29.83,SSW,205,0.0,3.0,38,0.00,,SKC,0.00,VWS V14.00,2013-09-03 17:33:00,
2013-09-03 11:38:00,81.2,53.9,29.83,SSW,205,2.0,3.0,39,0.00,,SKC,0.00,VWS V14.00,2013-09-03 17:38:00,
2013-09-03 11:44:00,81.7,51.4,29.83,SSW,200,2.0,3.0,35,0.00,,SKC,0.00,VWS V14.00,2013-09-03 17:44:00,
2013-09-03 11:49:00,82.3,53.5,29.83,SSW,201,1.0,4.0,37,0.00,,SKC,0.00,VWS V14.00,2013-09-03 17:49:00,
2013-09-03 11:54:00,82.8,53.2,29.83,SE,127,0.0,4.0,36,0.00,,SKC,0.00,VWS V14.00,2013-09-03 17:54:00,
2013-09-03 12:00:00,83.2,51.9,29.82,SSE,151,0.0,4.0,34,0.00,,SKC,0.00,VWS V14.00,2013-09-03 18:00:00,
2013-09-03 12:05:00,83.4,52.1,29.82,SW,232,0.0,3.0,34,0.00,,SKC,0.00,VWS V14.00,2013-09-03 18:05:00,
2013-09-03 12:10:00,83.4,52.1,29.82,South,178,1.0,4.0,34,0.00,,SKC,0.00,VWS V14.00,2013-09-03 18:10:00,
2013-09-03 12:15:00,83.5,51.4,29.82,SSW,209,5.0,6.0,33,0.00,,SKC,0.00,VWS V14.00,2013-09-03 18:15:00,
2013-09-03 12:20:00,83.5,53.8,29.81,SSE,150,1.0,9.0,36,0.00,,SKC,0.00,VWS V14.00,2013-09-03 18:20:00,
2013-09-03 12:26:00,83.7,50.7,29.81,North,355,0.0,9.0,32,0.00,,SKC,0.00,VWS V14.00,2013-09-03 18:26:00,
2013-09-03 12:31:00,84.2,51.2,29.81,ESE,112,2.0,9.0,32,0.00,,SKC,0.00,VWS V14.00,2013-09-03 18:31:00,
2013-09-03 12:36:00,84.8,52.5,29.81,SSE,163,2.0,6.0,33,0.00,,SKC,0.00,VWS V14.00,2013-09-03 18:36:00,
2013-09-03 12:41:00,84.7,52.4,29.81,SW,235,0.0,8.0,33,0.00,,SKC,0.00,VWS V14.00,2013-09-03 18:41:00,
2013-09-03 12:47:00,84.7,49.9,29.80,South,186,0.0,8.0,30,0.00,,SKC,0.00,VWS V14.00,2013-09-03 18:47:00,
2013-09-03 12:52:00,84.8,50.0,29.80,ESE,109,0.0,9.0,30,0.00,,SKC,0.00,VWS V14.00,2013-09-03 18:52:00,
2013-09-03 12:57:00,85.0,50.1,29.80,SW,214,2.0,9.0,30,0.00,,SKC,0.00,VWS V14.00,2013-09-03 18:57:00,
2013-09-03 13:02:00,85.0,49.2,29.79,SSE,163,0.0,0.0,29,0.00,,SKC,0.00,VWS V14.00,2013-09-03 19:02:00,
2013-09-03 13:07:00,85.2,51.2,29.79,South,187,0.0,3.0,31,0.00,,SKC,0.00,VWS V14.00,2013-09-03 19:07:00,
2013-09-03 13:13:00,85.5,50.6,29.79,South,179,0.0,7.0,30,0.00,,SKC,0.00,VWS V14.00,2013-09-03 19:13:00,
2013-09-03 13:18:00,85.6,50.7,29.78,West,266,0.0,7.0,30,0.00,,SKC,0.00,VWS V14.00,2013-09-03 19:18:00,
2013-09-03 13:23:00,86.0,49.1,29.78,SW,234,1.0,7.0,28,0.00,,SKC,0.00,VWS V14.00,2013-09-03 19:23:00,
2013-09-03 13:28:00,85.7,48.9,29.78,NE,56,0.0,7.0,28,0.00,,SKC,0.00,VWS V14.00,2013-09-03 19:28:00,
2013-09-03 13:34:00,85.8,50.8,29.78,SW,214,1.0,6.0,30,0.00,,SKC,0.00,VWS V14.00,2013-09-03 19:34:00,
2013-09-03 13:39:00,86.0,49.1,29.77,SSE,155,1.0,8.0,28,0.00,,SKC,0.00,VWS V14.00,2013-09-03 19:39:00,
2013-09-03 13:44:00,86.3,49.4,29.77,South,182,2.0,8.0,28,0.00,,SKC,0.00,VWS V14.00,2013-09-03 19:44:00,
2013-09-03 13:49:00,86.5,50.5,29.77,WNW,288,0.0,8.0,29,0.00,,SKC,0.00,VWS V14.00,2013-09-03 19:49:00,
2013-09-03 13:54:00,86.7,49.7,29.77,WSW,252,0.0,8.0,28,0.00,,SKC,0.00,VWS V14.00,2013-09-03 19:54:00,
2013-09-03 14:00:00,86.3,49.4,29.77,SSE,161,2.0,8.0,28,0.00,,SKC,0.00,VWS V14.00,2013-09-03 20:00:00,
2013-09-03 14:05:00,85.8,49.0,29.77,West,277,2.0,5.0,28,0.00,,SKC,0.00,VWS V14.00,2013-09-03 20:05:00,
2013-09-03 14:10:00,85.9,49.0,29.77,SSE,162,0.0,7.0,28,0.00,,SKC,0.00,VWS V14.00,2013-09-03 20:10:00,
2013-09-03 14:15:00,86.1,48.2,29.77,SSE,161,4.0,8.0,27,0.00,,SKC,0.00,VWS V14.00,2013-09-03 20:15:00,
2013-09-03 14:21:00,86.3,49.4,29.76,SSE,163,1.0,8.0,28,0.00,,SKC,0.00,VWS V14.00,2013-09-03 20:21:00,
2013-09-03 14:26:00,86.6,50.6,29.76,WSW,242,1.0,8.0,29,0.00,,SKC,0.00,VWS V14.00,2013-09-03 20:26:00,
2013-09-03 14:31:00,86.6,50.6,29.76,WSW,238,0.0,8.0,29,0.00,,SKC,0.00,VWS V14.00,2013-09-03 20:31:00,
2013-09-03 14:36:00,86.8,48.8,29.76,South,190,1.0,6.0,27,0.00,,SKC,0.00,VWS V14.00,2013-09-03 20:36:00,
2013-09-03 14:42:00,86.9,47.9,29.76,SSE,163,1.0,7.0,26,0.00,,SKC,0.00,VWS V14.00,2013-09-03 20:42:00,
2013-09-03 14:47:00,87.6,49.5,29.75,SW,217,4.0,8.0,27,0.00,,SKC,0.00,VWS V14.00,2013-09-03 20:47:00,
2013-09-03 14:52:00,88.1,44.5,29.74,SSE,154,8.0,11.0,22,0.00,,SKC,0.00,VWS V14.00,2013-09-03 20:52:00,
2013-09-03 14:57:00,88.1,43.3,29.74,South,180,1.0,11.0,21,0.00,,SKC,0.00,VWS V14.00,2013-09-03 20:57:00,
2013-09-03 15:03:00,88.6,46.1,29.74,SW,215,3.0,3.0,23,0.00,,SKC,0.00,VWS V14.00,2013-09-03 21:03:00,
2013-09-03 15:08:00,89.0,44.0,29.74,West,261,3.0,7.0,21,0.00,,SKC,0.00,VWS V14.00,2013-09-03 21:08:00,
2013-09-03 15:13:00,89.3,45.5,29.73,West,267,1.0,7.0,22,0.00,,SKC,0.00,VWS V14.00,2013-09-03 21:13:00,
2013-09-03 15:18:00,89.7,43.3,29.73,SSW,213,3.0,7.0,20,0.00,,SKC,0.00,VWS V14.00,2013-09-03 21:18:00,
2013-09-03 15:24:00,89.7,43.3,29.74,South,183,0.0,9.0,20,0.00,,SKC,0.00,VWS V14.00,2013-09-03 21:24:00,
2013-09-03 15:29:00,90.0,42.2,29.73,South,183,1.0,9.0,19,0.00,,SKC,0.00,VWS V14.00,2013-09-03 21:29:00,
2013-09-03 15:34:00,90.6,46.6,29.73,SSW,194,6.0,6.0,22,0.00,,SKC,0.00,VWS V14.00,2013-09-03 21:34:00,
2013-09-03 15:39:00,90.6,44.1,29.73,South,191,1.0,8.0,20,0.00,,SKC,0.00,VWS V14.00,2013-09-03 21:39:00,
2013-09-03 15:45:00,90.5,44.0,29.73,SSW,207,1.0,8.0,20,0.00,,SKC,0.00,VWS V14.00,2013-09-03 21:45:00,
2013-09-03 15:50:00,90.4,43.9,29.73,South,186,0.0,8.0,20,0.00,,SKC,0.00,VWS V14.00,2013-09-03 21:50:00,
2013-09-03 15:55:00,90.5,42.7,29.73,South,182,0.0,8.0,19,0.00,,SKC,0.00,VWS V14.00,2013-09-03 21:55:00,
2013-09-03 16:00:00,90.2,45.0,29.73,WSW,255,0.0,8.0,21,0.00,,SKC,0.00,VWS V14.00,2013-09-03 22:00:00,
2013-09-03 16:06:00,90.4,43.9,29.72,SSW,194,3.0,5.0,20,0.00,,SKC,0.00,VWS V14.00,2013-09-03 22:06:00,
2013-09-03 16:11:00,90.5,46.5,29.73,South,177,0.0,6.0,22,0.00,,SKC,0.00,VWS V14.00,2013-09-03 22:11:00,
2013-09-03 16:17:00,90.2,45.0,29.73,SW,227,2.0,10.0,21,0.00,,SKC,0.00,VWS V14.00,2013-09-03 22:17:00,
2013-09-03 16:22:00,89.7,45.8,29.73,WNW,286,0.0,10.0,22,0.00,,SKC,0.00,VWS V14.00,2013-09-03 22:22:00,
2013-09-03 16:27:00,90.1,48.5,29.73,West,271,0.0,10.0,24,0.00,,SKC,0.00,VWS V14.00,2013-09-03 22:27:00,
2013-09-03 16:32:00,90.7,46.7,29.73,SW,222,1.0,2.0,22,0.00,,SKC,0.00,VWS V14.00,2013-09-03 22:32:00,
2013-09-03 16:37:00,90.9,48.0,29.74,West,274,4.0,7.0,23,0.00,,SKC,0.00,VWS V14.00,2013-09-03 22:37:00,
2013-09-03 16:43:00,90.0,52.5,29.74,WSW,254,3.0,14.0,28,0.00,,SKC,0.00,VWS V14.00,2013-09-03 22:43:00,
2013-09-03 16:48:00,87.7,51.5,29.74,North,350,7.0,20.0,29,0.00,,SKC,0.00,VWS V14.00,2013-09-03 22:48:00,
2013-09-03 16:53:00,86.6,51.5,29.75,North,350,9.0,20.0,30,0.00,,SKC,0.00,VWS V14.00,2013-09-03 22:53:00,
2013-09-03 16:58:00,85.8,51.7,29.75,NE,44,2.0,20.0,31,0.00,,SKC,0.00,VWS V14.00,2013-09-03 22:58:00,
2013-09-03 17:04:00,85.1,52.0,29.75,NW,320,6.0,7.0,32,0.00,,SKC,0.00,VWS V14.00,2013-09-03 23:04:00,
2013-09-03 17:09:00,84.8,52.5,29.75,West,266,2.0,15.0,33,0.00,,SKC,0.00,VWS V14.00,2013-09-03 23:09:00,
2013-09-03 17:14:00,84.8,51.7,29.75,NW,305,0.0,15.0,32,0.00,,SKC,0.00,VWS V14.00,2013-09-03 23:14:00,
2013-09-03 17:19:00,85.3,52.1,29.75,West,277,4.0,15.0,32,0.00,,SKC,0.00,VWS V14.00,2013-09-03 23:19:00,
2013-09-03 17:25:00,85.6,51.5,29.75,WNW,282,0.0,15.0,31,0.00,,SKC,0.00,VWS V14.00,2013-09-03 23:25:00,
2013-09-03 17:30:00,85.5,51.4,29.75,SSE,163,0.0,15.0,31,0.00,,SKC,0.00,VWS V14.00,2013-09-03 23:30:00,
2013-09-03 17:35:00,85.7,51.6,29.75,West,261,7.0,7.0,31,0.00,,SKC,0.00,VWS V14.00,2013-09-03 23:35:00,
2013-09-03 17:40:00,85.3,51.3,29.74,WSW,258,2.0,9.0,31,0.00,,SKC,0.00,VWS V14.00,2013-09-03 23:40:00,
2013-09-03 17:46:00,85.0,51.9,29.74,NNW,342,5.0,9.0,32,0.00,,SKC,0.00,VWS V14.00,2013-09-03 23:46:00,
2013-09-03 17:51:00,85.1,50.2,29.74,NW,314,0.0,9.0,30,0.00,,SKC,0.00,VWS V14.00,2013-09-03 23:51:00,
2013-09-03 17:56:00,85.3,50.4,29.74,West,275,5.0,9.0,30,0.00,,SKC,0.00,VWS V14.00,2013-09-03 23:56:00,
2013-09-03 18:01:00,84.9,50.9,29.74,WSW,252,1.0,9.0,31,0.00,,SKC,0.00,VWS V14.00,2013-09-04 00:01:00,
2013-09-03 18:07:00,84.7,50.8,29.74,WSW,257,0.0,5.0,31,0.00,,SKC,0.00,VWS V14.00,2013-09-04 00:07:00,
2013-09-03 18:12:00,85.0,50.1,29.74,South,178,2.0,5.0,30,0.00,,SKC,0.00,VWS V14.00,2013-09-04 00:12:00,
2013-09-03 18:17:00,85.3,50.4,29.74,WSW,249,0.0,5.0,30,0.00,,SKC,0.00,VWS V14.00,2013-09-04 00:17:00,
2013-09-03 18:22:00,85.3,50.4,29.74,SW,221,0.0,5.0,30,0.00,,SKC,0.00,VWS V14.00,2013-09-04 00:22:00,
2013-09-03 18:28:00,85.3,50.4,29.74,SW,221,0.0,5.0,30,0.00,,SKC,0.00,VWS V14.00,2013-09-04 00:28:00,
2013-09-03 18:33:00,85.0,50.1,29.74,SW,221,0.0,0.0,30,0.00,,SKC,0.00,VWS V14.00,2013-09-04 00:33:00,
2013-09-03 18:38:00,84.3,51.3,29.74,SW,221,0.0,1.0,32,0.00,,SKC,0.00,VWS V14.00,2013-09-04 00:38:00,
2013-09-03 18:43:00,83.4,51.3,29.73,SW,221,0.0,1.0,33,0.00,,SKC,0.00,VWS V14.00,2013-09-04 00:43:00,
2013-09-03 18:49:00,82.9,50.0,29.73,SW,221,0.0,1.0,32,0.00,,SKC,0.00,VWS V14.00,2013-09-04 00:49:00,
2013-09-03 18:54:00,82.2,53.4,29.73,SW,221,0.0,1.0,37,0.00,,SKC,0.00,VWS V14.00,2013-09-04 00:54:00,
2013-09-03 18:59:00,80.9,50.7,29.74,SW,221,0.0,1.0,35,0.00,,SKC,0.00,VWS V14.00,2013-09-04 00:59:00,
2013-09-03 19:04:00,79.5,51.7,29.74,WSW,238,1.0,2.0,38,0.00,,SKC,0.00,VWS V14.00,2013-09-04 01:04:00,
2013-09-03 19:09:00,78.6,53.6,29.74,WSW,238,0.0,2.0,42,0.00,,SKC,0.00,VWS V14.00,2013-09-04 01:09:00,
2013-09-03 19:15:00,77.5,51.3,29.74,WSW,238,0.0,2.0,40,0.00,,SKC,0.00,VWS V14.00,2013-09-04 01:15:00,
2013-09-03 19:20:00,76.9,51.4,29.74,WSW,238,0.0,2.0,41,0.00,,SKC,0.00,VWS V14.00,2013-09-04 01:20:00,
2013-09-03 19:25:00,76.5,52.4,29.74,WSW,238,0.0,2.0,43,0.00,,SKC,0.00,VWS V14.00,2013-09-04 01:25:00,
2013-09-03 19:30:00,75.5,52.1,29.74,NNW,327,0.0,4.0,44,0.00,,SKC,0.00,VWS V14.00,2013-09-04 01:30:00,
2013-09-03 19:36:00,74.2,52.7,29.74,NNW,332,4.0,5.0,47,0.00,,SKC,0.00,VWS V14.00,2013-09-04 01:36:00,
2013-09-03 19:41:00,73.6,51.0,29.74,NNW,337,4.0,5.0,45,0.00,,SKC,0.00,VWS V14.00,2013-09-04 01:41:00,
2013-09-03 19:46:00,73.2,52.4,29.74,NNW,337,0.0,5.0,48,0.00,,SKC,0.00,VWS V14.00,2013-09-04 01:46:00,
2013-09-03 19:51:00,72.6,52.9,29.75,NNW,337,0.0,5.0,50,0.00,,SKC,0.00,VWS V14.00,2013-09-04 01:51:00,
2013-09-03 19:56:00,72.1,49.6,29.75,NNW,337,0.0,5.0,45,0.00,,SKC,0.00,VWS V14.00,2013-09-04 01:56:00,
2013-09-03 20:02:00,72.0,49.5,29.75,NNW,337,0.0,5.0,45,0.00,,SKC,0.00,VWS V14.00,2013-09-04 02:02:00,
2013-09-03 20:07:00,72.2,51.4,29.75,NNW,337,0.0,4.0,48,0.00,,SKC,0.00,VWS V14.00,2013-09-04 02:07:00,
2013-09-03 20:12:00,71.6,52.0,29.75,NNW,337,0.0,4.0,50,0.00,,SKC,0.00,VWS V14.00,2013-09-04 02:12:00,
2013-09-03 20:17:00,70.9,49.1,29.76,NNW,338,5.0,5.0,46,0.00,,SKC,0.00,VWS V14.00,2013-09-04 02:17:00,
2013-09-03 20:22:00,71.0,52.0,29.76,NNW,338,2.0,5.0,51,0.00,,SKC,0.00,VWS V14.00,2013-09-04 02:22:00,
2013-09-03 20:28:00,70.3,51.9,29.76,NNW,338,0.0,5.0,52,0.00,,SKC,0.00,VWS V14.00,2013-09-04 02:28:00,
2013-09-03 20:33:00,69.7,52.3,29.77,NNW,338,0.0,0.0,54,0.00,,SKC,0.00,VWS V14.00,2013-09-04 02:33:00,
2013-09-03 20:38:00,69.1,50.8,29.77,NNW,338,0.0,4.0,52,0.00,,SKC,0.00,VWS V14.00,2013-09-04 02:38:00,
2013-09-03 20:43:00,69.1,47.5,29.77,ENE,60,2.0,4.0,46,0.00,,SKC,0.00,VWS V14.00,2013-09-04 02:43:00,
2013-09-03 20:49:00,70.3,48.0,29.78,ENE,60,0.0,4.0,45,0.00,,SKC,0.00,VWS V14.00,2013-09-04 02:49:00,
2013-09-03 20:54:00,71.6,47.9,29.78,ENE,57,0.0,4.0,43,0.00,,SKC,0.00,VWS V14.00,2013-09-04 02:54:00,
2013-09-03 20:59:00,71.9,50.0,29.78,ENE,57,0.0,4.0,46,0.00,,SKC,0.00,VWS V14.00,2013-09-04 02:59:00,
2013-09-03 21:04:00,71.3,50.0,29.79,ENE,57,0.0,1.0,47,0.00,,SKC,0.00,VWS V14.00,2013-09-04 03:04:00,
2013-09-03 21:09:00,70.6,48.8,29.79,ENE,57,0.0,1.0,46,0.00,,SKC,0.00,VWS V14.00,2013-09-04 03:09:00,
2013-09-03 21:15:00,70.1,49.0,29.79,ENE,57,2.0,3.0,47,0.00,,SKC,0.00,VWS V14.00,2013-09-04 03:15:00,
2013-09-03 21:20:00,70.0,47.7,29.80,ENE,57,0.0,4.0,45,0.00,,SKC,0.00,VWS V14.00,2013-09-04 03:20:00,
2013-09-03 21:25:00,70.5,47.6,29.80,ENE,57,2.0,4.0,44,0.00,,SKC,0.00,VWS V14.00,2013-09-04 03:25:00,
2013-09-03 21:30:00,71.2,47.6,29.80,ENE,57,0.0,4.0,43,0.00,,SKC,0.00,VWS V14.00,2013-09-04 03:30:00,
2013-09-03 21:35:00,71.3,47.7,29.81,ENE,57,0.0,1.0,43,0.00,,SKC,0.00,VWS V14.00,2013-09-04 03:35:00,
2013-09-03 21:41:00,71.5,47.8,29.82,NE,53,0.0,4.0,43,0.00,,SKC,0.00,VWS V14.00,2013-09-04 03:41:00,
2013-09-03 21:46:00,71.3,48.9,29.82,NE,53,0.0,4.0,45,0.00,,SKC,0.00,VWS V14.00,2013-09-04 03:46:00,
2013-09-03 21:51:00,70.9,47.9,29.82,NE,53,0.0,4.0,44,0.00,,SKC,0.00,VWS V14.00,2013-09-04 03:51:00,
2013-09-03 21:56:00,70.6,47.7,29.82,NE,46,1.0,6.0,44,0.00,,SKC,0.00,VWS V14.00,2013-09-04 03:56:00,
2013-09-03 22:01:00,70.6,47.7,29.82,NNE,15,2.0,6.0,44,0.00,,SKC,0.00,VWS V14.00,2013-09-04 04:01:00,
2013-09-03 22:02:00,70.7,48.9,29.82,NNE,15,0.0,6.0,46,0.00,,SKC,0.00,VWS V14.00,2013-09-04 04:02:00,
2013-09-03 22:05:00,70.9,49.7,29.82,East,83,0.0,5.0,47,0.00,,SKC,0.00,VWS V14.00,2013-09-04 04:05:00,
2013-09-03 22:10:00,70.7,48.9,29.82,East,83,0.0,5.0,46,0.00,,SKC,0.00,VWS V14.00,2013-09-04 04:10:00,
2013-09-03 22:16:00,70.1,47.8,29.82,East,83,0.0,5.0,45,0.00,,SKC,0.00,VWS V14.00,2013-09-04 04:16:00,
2013-09-03 22:21:00,69.7,48.6,29.83,East,83,1.0,5.0,47,0.00,,SKC,0.00,VWS V14.00,2013-09-04 04:21:00,
2013-09-03 22:26:00,69.5,47.8,29.83,NE,38,4.0,5.0,46,0.00,,SKC,0.00,VWS V14.00,2013-09-04 04:26:00,
2013-09-03 22:31:00,69.6,49.6,29.83,NE,46,0.0,5.0,49,0.00,,SKC,0.00,VWS V14.00,2013-09-04 04:31:00,
2013-09-03 22:36:00,69.5,49.0,29.83,NE,45,0.0,2.0,48,0.00,,SKC,0.00,VWS V14.00,2013-09-04 04:36:00,
2013-09-03 22:42:00,69.1,48.0,29.83,NE,45,0.0,2.0,47,0.00,,SKC,0.00,VWS V14.00,2013-09-04 04:42:00,
2013-09-03 22:47:00,68.6,47.6,29.83,NE,45,1.0,2.0,47,0.00,,SKC,0.00,VWS V14.00,2013-09-04 04:47:00,
2013-09-03 22:52:00,68.9,48.4,29.83,NE,41,0.0,4.0,48,0.00,,SKC,0.00,VWS V14.00,2013-09-04 04:52:00,
2013-09-03 22:57:00,69.0,47.4,29.83,ENE,72,1.0,4.0,46,0.00,,SKC,0.00,VWS V14.00,2013-09-04 04:57:00,
2013-09-03 23:03:00,69.2,48.1,29.83,ENE,72,0.0,0.0,47,0.00,,SKC,0.00,VWS V14.00,2013-09-04 05:03:00,
2013-09-03 23:08:00,69.0,49.1,29.83,ENE,72,0.0,1.0,49,0.00,,SKC,0.00,VWS V14.00,2013-09-04 05:08:00,
2013-09-03 23:13:00,68.6,48.2,29.83,ENE,72,0.0,1.0,48,0.00,,SKC,0.00,VWS V14.00,2013-09-04 05:13:00,
2013-09-03 23:18:00,68.2,47.8,29.83,ENE,72,0.0,1.0,48,0.00,,SKC,0.00,VWS V14.00,2013-09-04 05:18:00,
2013-09-03 23:23:00,67.8,48.5,29.83,ENE,72,0.0,1.0,50,0.00,,SKC,0.00,VWS V14.00,2013-09-04 05:23:00,
2013-09-03 23:29:00,67.5,48.2,29.83,ENE,72,0.0,1.0,50,0.00,,SKC,0.00,VWS V14.00,2013-09-04 05:29:00,
2013-09-03 23:34:00,67.3,48.0,29.82,ENE,72,0.0,2.0,50,0.00,,SKC,0.00,VWS V14.00,2013-09-04 05:34:00,
2013-09-03 23:39:00,67.3,47.5,29.82,NE,49,0.0,4.0,49,0.00,,SKC,0.00,VWS V14.00,2013-09-04 05:39:00,
2013-09-03 23:44:00,67.6,48.8,29.82,NE,49,0.0,4.0,51,0.00,,SKC,0.00,VWS V14.00,2013-09-04 05:44:00,
2013-09-03 23:49:00,67.4,48.7,29.82,NE,49,0.0,4.0,51,0.00,,SKC,0.00,VWS V14.00,2013-09-04 05:49:00,
2013-09-03 23:55:00,67.0,48.3,29.83,NE,49,0.0,4.0,51,0.00,,SKC,0.00,VWS V14.00,2013-09-04 05:55:00,